SCP
0 0 0 0 0 0 0 0 0 0 0 0 0 0 0 0 0 0 0 0 0 0 0 0 0 0 0 0 0 -0 0 0 0 0 0 0 -0 -0 -0 0 0 0 0 0 0 0 0 -0 0 0 0 -0 0 -0
0 0 0 0 0 0 0 0 0 0 0 0 0 0 0 0 0 0 0 0 0 0 0 0 0 0 -0 -0 0 0 0 0 0 0 0 0 -0 -0 -0 -0 -0 0 0 0 0 0 -0 -0 0 -0 -0 -0 -0 0
0 0 0 0 0 0 0 0 0 0 0 0 0 0 0 0 0 0 0 0 0 0 0 0 0 0 0 0 0 0 0 0 0 0 0 -0 -0 -0 -0 -0 0 0 0 0 0 0 0 0 0 -0 0 -0 -0 0
0 0 0 0 0 0 0 0 0 0 0 0 0 0 0 0 0 0 0 0 0 0 0 0 0 0 0 0 0 -0 -0 0 0 0 0 0 0 -0 -0 -0 0 0 0 0 0 0 -0 0 0 -0 -0 -0 0 0
0 0 0 0 0 0 0 0 0 0 0 0 0 0 0 0 0 0 0 0 0 0 0 0 0 0 0 0 -0 -0 -0 -0 0 0 0 0 0 -0 0 -0 0 0 0 0 0 -0 -0 -0 0 0 -0 0 0 0
0 0 0 0 0 0 0 0 0 0 0 0 0 0 0 0 0 0 0 0 0 0 0 0 0 0 0 0 0 0 0 0 0 0 0 0 0 0 -0 -0 0 0 0 0 0 -0 0 0 0 0 -0 -0 0 0
0 0 0 0 0 0 0 0 0 0 0 0 0 0 0 0 0 0 0 0 0 0 0 0 0 0 0 0 0 0 0 0 0 0 0 0 0 0 -0 -0 -0 -0 0 0 0 0 -0 -0 -0 -0 -0 0 0 0
0 0 0 0 0 0 0 0 0 0 0 0 0 0 0 0 0 0 0 0 0 0 0 0 0 0 0 0 0 0 0 0 0 0 0 0 0 0 -0 -0 -0 0 0 -0 0 -0 0 -0 0 0 0 0 0 0
0 0 0 0 0 0 0 0 0 0 0 0 0 0 0 0 0 0 0 0 0 0 0 0 0 0 0 0 0 0 0 0 0 0 0 0 0 -0 -0 -0 -0 0 -0 -0 -0 0 -0 0 0 0 0 0 0 0
0 0 0 0 0 0 0 0 0 0 0 0 0 0 0 0 0 0 0 0 0 0 0 0 0 -0 0 -0 -0 0 0 0 0 -0 0 0 0 0 0 0 0 0 -0 -0 -0 0 -0 0 0 0 0 0 0 0
0 0 0 0 0 0 0 0 0 0 0 0 0 0 0 0 0 0 0 0 0 0 0 0 0 -0 -0 -0 -0 0 0 0 0 0 0 0 -0 0 0 0 0 0 -0 -0 -0 -0 -0 0 0 0 0 0 0 0
0 0 0 0 0 0 0 0 0 0 0 0 0 0 0 0 0 0 0 0 0 0 0 0 0 0 0 0 0 0 0 -0 -0 0 0 -0 -0 0 0 0 0 -0 -0 -0 -0 -0 -0 0 0 0 0 0 0 0
0 0 0 0 0 0 0 0 0 0 0 0 0 0 0 0 0 0 0 0 0 0 0 0 0 0 0 0 0 0 -0 0 0 -0 -0 -0 0 0 0 0 -0 -0 -0 -0 -0 -0 -0 -0 -0 0 0 0 0 0
0 0 0 0 0 0 0 0 0 0 0 0 0 0 0 0 0 0 0 -0 -0 -0 0 0 0 0 0 0 0 0 0 0 0 -0 0 0 0 0 -0 0 0 -0 0 0 -0 -0 -0 -0 -0 0 0 0 0 0
0 0 0 0 0 0 0 0 0 0 0 0 0 0 0 0 0 0 0 -0 -0 0 0 0 -0 -0 -0 -0 0 0 0 0 0 0 0 -0 -0 -0 0 0 0 -0 -0 0 0 -0 0 -0 -0 -0 0 -0 0 0
0 0 0 0 0 0 0 0 0 0 0 0 0 0 0 0 0 0 0 -0 -0 0 0 0 0 -0 -0 0 0 0 0 0 0 0 0 0 0 0 0 0 0 -0 0 0 0 0 0 0 0 0 -0 -0 0 0
0 0 0 0 0 -0 -0 0 0 0 0 0 0 0 0 0 0 -0 -0 -0 0 -0 0 0 0 0 0 0 0 0 0 0 0 0 -0 -0 0 -0 0 0 0 0 0 0 0 0 0 0 0 0 0 0 0 0
0 0 0 0 0 0 0 0 0 0 0 0 0 0 0 0 0 0 0 0 0 -0 0 0 0 0 0 0 0 0 0 0 0 0 0 -0 -0 -0 -0 -0 -0 0 0 0 -0 0 -0 0 0 0 0 0 -0 -0
0 0 0 0 0 0 0 0 0 0 0 0 0 0 0 0 0 0 0 -0 -0 -0 -0 0 0 0 0 -0 0 0 0 0 0 0 0 0 -0 -0 0 0 0 0 0 0 -0 -0 -0 0 0 -0 0 0 -0 0
-0 0 0 -0 -0 0 0 0 0 0 0 0 0 0 0 -0 -0 -0 0 0 0 -0 -0 0 0 0 0 0 -0 0 0 0 0 0 0 0 -0 -0 0 0 0 0 0 0 0 -0 -0 -0 -0 0 0 0 0 0
0 0 -0 0 0 0 0 0 0 0 -0 -0 -0 0 -0 -0 -0 -0 -0 -0 -0 0 0 0 0 0 0 0 0 0 0 0 0 0 0 0 0 0 0 0 -0 0 -0 0 0 0 -0 0 0 -0 -0 0 0 0
0 -0 -0 0 0 0 0 0 -0 -0 0 -0 -0 0 -0 -0 0 0 0 -0 -0 -0 -0 0 0 0 0 0 0 0 0 0 0 0 0 0 0 0 0 0 0 0 0 0 0 0 0 0 0 0 0 0 0 0
0 0 0 0 0 0 0 0 0 -0 -0 -0 -0 -0 -0 -0 0 0 0 0 -0 -0 -0 -0 0 0 0 0 0 0 0 0 0 0 0 0 0 0 0 0 -0 0 -0 0 0 0 0 -0 0 0 0 0 0 0
0 0 0 0 0 0 0 0 0 0 -0 -0 -0 -0 -0 0 -0 0 0 0 0 -0 -0 -0 0 0 0 0 0 0 0 0 0 0 0 0 0 0 0 0 0 0 0 0 0 0 0 0 0 0 0 0 0 0
0 0 0 0 0 0 0 0 0 0 0 -0 0 0 -0 -0 0 0 0 0 -0 0 0 -0 -0 0 0 0 0 0 0 0 0 0 0 0 0 0 0 0 0 0 0 0 0 0 -0 0 0 0 -0 0 0 0
0 0 0 0 0 0 0 0 0 0 0 0 0 0 0 0 0 0 0 -0 0 0 -0 -0 -0 -0 0 0 0 0 0 0 0 0 0 0 0 0 0 0 0 0 0 0 0 0 0 0 0 0 0 0 0 0
0 0 0 0 0 0 0 0 -0 0 0 0 0 0 0 0 0 0 0 0 0 0 0 0 0 -0 -0 -0 0 0 0 0 0 0 0 0 0 0 0 0 0 0 0 0 0 0 0 0 0 0 0 0 0 0
0 0 0 0 0 0 0 0 0 0 0 0 0 0 0 0 0 0 0 0 0 0 -0 -0 -0 0 0 0 0 0 0 0 0 0 0 0 0 0 0 0 0 0 0 0 0 0 0 0 0 0 0 0 0 0
0 0 0 0 0 0 0 0 0 0 0 0 0 0 0 0 0 0 0 0 0 0 0 -0 -0 0 0 0 0 0 -0 0 0 0 0 0 0 0 0 0 0 0 0 0 0 0 0 0 0 0 0 0 0 0
0 0 0 0 0 0 0 0 0 0 0 0 0 0 0 0 0 0 0 0 0 0 0 0 0 0 0 0 -0 0 0 0 0 0 0 0 0 0 0 0 0 0 0 0 0 0 0 0 0 0 0 0 0 0
0 0 0 0 0 0 0 0 0 0 0 0 0 0 0 0 0 0 0 0 0 0 0 0 0 0 0 0 0 -0 0 0 0 0 0 0 0 0 0 0 0 0 0 0 0 0 0 0 0 0 0 0 0 0
0 0 0 0 0 0 0 0 0 0 0 0 0 0 0 0 0 0 0 0 0 0 0 0 0 0 0 0 0 0 0 0 0 0 0 0 0 0 0 0 0 0 0 0 0 0 0 0 0 0 0 0 0 0
0 0 0 0 0 0 0 0 0 0 0 0 0 0 0 0 0 0 0 0 0 0 0 0 0 0 0 0 0 0 0 0 -0 -0 0 0 0 0 0 0 0 0 0 0 0 0 0 0 0 0 0 0 0 0
Wind_Speed_500mb
35 33 36 40 44 47 51 49 51 50 46 41 38 35 31 27 23 18 22 24 31 37 59 56 44 38 31 27 17 21 20 2 16 7 6 7 7 8 8 22 19 7 6 6 7 10 3 31 14 7 22 52 44 44
37 36 39 42 46 48 48 48 49 49 47 43 40 35 32 28 24 20 27 16 30 36 49 63 64 61 62 54 35 14 13 19 9 6 8 10 10 9 20 10 17 8 8 5 6 10 41 44 34 47 46 48 57 50
37 37 39 44 46 49 47 47 49 48 48 45 42 37 29 27 26 23 26 27 31 33 55 33 28 19 22 35 47 34 22 18 13 13 3 4 10 12 9 16 26 19 10 7 5 10 27 44 34 46 27 45 61 71
37 37 38 45 48 48 47 47 48 48 48 45 43 36 30 30 29 27 27 21 25 17 13 12 14 28 26 32 36 46 44 16 13 12 8 7 7 14 11 21 26 26 21 18 23 28 34 18 29 43 41 54 65 34
35 35 39 44 50 50 48 47 48 48 47 45 44 39 36 35 39 36 36 36 32 24 11 32 60 17 13 23 38 44 50 45 33 7 7 6 11 11 9 12 12 22 19 8 7 21 25 27 46 39 51 62 55 30
34 33 39 46 49 50 49 48 48 48 46 44 42 41 44 42 31 16 12 11 20 39 10 8 20 26 19 18 21 31 35 32 21 9 10 11 18 10 7 7 18 32 31 23 22 25 27 38 40 40 46 63 37 29
30 32 42 45 48 48 49 50 49 47 45 43 42 45 42 30 21 18 10 9 10 13 9 11 11 11 19 17 11 18 23 17 15 9 14 15 27 17 8 20 22 31 31 27 26 31 28 34 43 42 50 45 33 27
28 32 43 46 48 47 48 48 48 48 44 42 44 42 35 17 16 29 25 34 27 16 10 6 10 19 25 17 13 22 14 18 18 11 10 13 16 17 9 14 16 28 33 35 28 37 37 41 42 41 42 38 34 38
28 34 43 46 47 46 45 44 47 47 45 44 39 23 9 5 6 10 13 14 15 25 8 8 7 6 10 23 10 16 17 8 12 8 10 10 9 10 9 19 19 26 29 33 34 35 39 45 43 36 36 41 45 38
28 36 42 44 45 44 42 41 43 45 46 34 18 8 8 4 10 14 13 11 18 15 16 10 31 18 25 15 9 8 14 7 7 14 11 7 13 23 14 3 12 20 24 28 33 38 41 43 40 34 32 34 37 38
27 37 40 41 40 40 38 37 36 40 31 24 13 9 16 18 10 14 11 13 14 7 15 16 31 23 19 13 8 10 4 6 6 5 5 6 2 5 8 7 11 16 22 26 24 25 25 36 42 34 29 33 41 38
29 36 35 36 36 34 32 33 35 29 22 24 25 27 18 6 12 7 7 8 8 7 14 8 5 6 6 10 8 6 4 7 7 6 5 3 10 18 9 9 14 14 21 22 24 29 30 39 40 34 24 32 36 32
33 32 31 32 31 31 26 31 32 32 33 9 6 7 5 5 3 7 8 7 7 15 15 9 2 3 7 10 10 6 8 7 10 5 4 6 10 15 9 8 12 12 18 20 26 29 32 33 34 36 31 32 30 30
31 26 26 27 26 23 26 31 31 31 11 7 8 6 7 5 7 6 12 16 23 20 23 10 10 7 2 3 4 8 10 3 4 4 1 10 16 9 9 7 11 13 16 17 19 26 29 33 39 40 38 36 39 34
23 21 21 19 19 23 27 30 26 11 7 8 8 7 7 15 30 14 19 24 28 36 32 21 15 9 3 6 7 9 8 6 6 2 6 18 11 7 6 7 3 14 11 16 17 21 25 29 34 36 36 34 31 30
15 15 15 15 20 24 26 18 4 3 2 5 7 13 24 27 32 35 28 29 14 30 39 18 11 6 8 5 9 9 4 4 1 6 10 10 3 5 9 3 3 8 12 15 17 18 20 24 28 31 30 33 33 35
10 7 16 16 16 17 16 8 5 3 1 4 10 20 24 25 25 32 31 34 26 17 9 12 6 6 2 8 5 5 7 11 21 25 26 16 8 7 8 7 3 6 7 12 13 15 18 20 22 28 32 29 35 35
10 13 13 10 12 9 2 3 2 2 6 11 14 23 26 28 31 32 26 23 20 15 17 13 15 9 9 12 9 9 28 44 29 36 29 23 15 4 12 9 11 8 9 13 11 12 14 16 19 23 25 25 28 31
19 12 5 5 8 7 1 1 2 6 6 13 15 18 26 29 27 25 27 23 18 15 13 15 10 8 8 7 26 39 36 36 43 43 35 26 22 17 5 8 9 14 10 11 10 12 11 14 17 19 21 22 26 28
12 7 3 4 11 2 2 3 1 5 9 16 19 25 28 26 26 23 18 13 15 10 10 5 10 28 29 35 33 37 39 41 42 42 37 38 24 34 2 5 9 13 16 14 14 12 13 15 15 15 17 20 23 26
6 6 4 14 2 2 3 4 6 6 11 14 21 26 19 25 21 32 29 38 25 14 15 22 38 43 41 35 35 36 34 35 34 33 36 38 38 28 30 20 8 16 26 21 18 16 13 13 14 17 16 17 20 22
10 6 9 4 4 2 3 2 9 13 7 14 20 19 14 18 25 26 20 24 14 18 31 42 44 40 41 35 35 32 33 35 34 33 30 29 33 30 23 16 16 12 15 18 25 19 17 16 17 18 18 21 23 23
8 11 7 5 4 4 5 2 5 8 6 13 16 9 13 10 14 9 9 15 16 32 42 41 43 38 34 32 28 26 23 25 27 29 30 28 28 26 31 34 18 22 22 22 26 24 22 23 25 21 22 21 20 25
18 7 8 9 8 4 2 3 2 5 7 6 6 5 7 8 10 6 7 11 26 35 46 51 48 48 51 49 42 34 31 28 30 28 24 26 28 27 27 31 26 19 26 20 32 35 33 28 29 26 24 22 22 22
6 6 9 5 8 6 7 3 2 2 4 4 3 4 3 3 3 6 6 15 31 38 50 54 50 50 53 58 58 50 36 28 25 23 23 28 28 26 25 25 29 27 29 20 35 44 41 33 34 32 30 27 25 24
9 11 16 15 12 8 6 5 7 5 3 3 2 4 2 2 5 6 7 22 26 37 43 46 43 46 52 57 63 64 53 32 26 28 21 24 25 23 20 23 18 21 12 13 29 31 37 37 39 38 35 34 35 30
8 12 13 10 8 10 8 7 3 4 5 5 3 1 4 3 5 7 8 17 22 33 32 35 36 37 41 47 56 60 55 41 28 26 28 29 30 20 16 17 15 10 12 25 14 36 44 43 42 43 40 37 38 36
11 13 16 18 12 7 6 6 7 6 4 3 4 4 5 2 4 4 8 17 21 25 26 27 29 30 33 35 41 54 57 52 49 41 33 45 45 45 34 13 17 18 12 11 18 26 25 41 42 44 44 42 41 40
12 16 15 15 12 8 13 11 7 4 3 4 1 4 7 5 3 6 10 14 17 20 24 29 32 30 30 28 32 40 53 61 64 64 55 58 67 62 53 45 30 12 17 18 21 26 28 30 38 42 44 45 42 40
17 24 13 18 10 12 15 14 8 8 5 4 9 14 11 11 9 7 8 11 15 18 20 22 26 31 33 36 36 37 42 48 53 55 53 54 56 54 55 52 48 29 11 9 14 13 29 27 35 38 45 48 51 53
26 24 13 15 12 14 18 19 12 7 8 8 6 10 17 15 11 9 14 13 12 12 16 20 23 28 31 34 35 37 38 42 46 49 50 46 47 51 56 52 49 44 34 20 9 17 21 30 31 35 39 47 50 55
21 20 19 11 12 12 13 12 14 10 15 14 11 14 15 15 9 3 12 13 12 15 17 18 20 23 26 25 26 28 31 32 40 48 48 49 50 49 46 53 54 52 45 39 26 25 18 30 42 39 37 36 35 47
11 19 15 8 6 9 19 12 8 11 9 9 8 12 10 7 8 6 4 13 14 15 17 14 14 15 19 24 26 25 27 28 36 38 35 38 41 44 47 44 45 48 50 51 48 43 35 25 26 24 18 20 25 31
Wind_Direction_500mb
306 305 315 323 328 329 330 330 332 332 332 331 332 331 326 318 305 286 275 268 267 272 283 281 279 278 278 255 257 311 315 353 290 264 321 337 313 310 303 286 288 269 290 305 292 267 345 341 348 233 315 309 308 302
300 300 312 321 326 326 328 328 330 330 329 328 327 328 326 321 309 287 287 279 275 265 266 287 283 271 258 251 251 231 283 313 289 313 349 330 312 295 313 296 328 302 205 260 202 287 300 309 297 298 289 277 289 285
296 299 309 319 323 324 326 326 327 328 326 325 325 325 328 326 318 298 283 288 281 284 296 274 266 248 250 242 234 239 258 228 230 234 299 285 277 306 293 287 312 310 328 241 295 269 315 313 309 304 307 307 302 287
294 298 307 316 319 321 323 323 323 324 323 324 322 322 325 314 303 291 280 264 263 283 283 307 304 272 262 246 221 221 234 234 263 238 219 256 260 290 278 296 303 289 296 288 272 289 319 282 294 320 323 320 320 310
292 298 307 315 317 318 321 321 321 322 322 322 320 319 312 302 296 292 277 261 232 240 290 299 306 302 237 226 228 227 238 249 261 248 238 233 252 298 283 299 267 268 351 315 296 334 294 325 343 343 335 322 329 327
293 300 306 314 312 316 319 320 321 320 321 322 319 315 311 306 300 285 301 242 225 220 264 284 301 285 225 221 227 228 230 233 226 215 238 237 250 262 266 266 275 342 337 349 328 334 358 339 335 340 330 332 341 339
292 301 309 311 311 315 317 319 320 320 323 322 317 314 310 300 265 213 265 199 209 223 245 276 271 254 219 216 223 213 212 214 212 228 227 243 255 208 264 272 311 343 356 353 29 7 355 351 340 340 345 346 357 6
290 301 312 308 310 315 316 318 319 320 325 322 318 313 306 297 253 243 259 247 250 207 243 264 265 259 202 209 200 194 198 205 219 237 239 237 242 212 258 302 334 358 358 0 42 21 354 345 345 350 353 1 15 23
287 302 310 307 311 314 317 319 319 322 327 325 321 317 308 273 242 250 256 224 235 223 258 239 268 298 238 255 203 183 192 206 224 220 236 244 239 230 276 308 356 12 10 356 15 7 6 352 350 4 3 11 21 29
284 304 306 307 311 314 319 321 322 327 333 336 354 290 210 150 257 276 262 224 209 213 231 248 248 261 313 305 269 194 193 218 232 216 216 237 256 260 240 298 7 11 7 8 14 10 0 357 3 12 16 15 23 31
288 300 303 307 311 315 322 326 332 337 354 352 323 278 286 286 280 238 231 204 179 230 217 236 238 245 266 266 299 289 286 241 255 153 242 228 297 126 107 102 54 27 12 20 28 20 14 1 8 23 28 23 26 36
291 295 303 304 308 315 323 331 339 347 325 307 298 295 313 324 234 260 244 244 208 265 167 247 228 197 256 276 268 260 239 271 272 354 249 304 323 111 111 87 65 43 22 17 19 19 18 12 14 26 41 47 32 38
289 295 298 301 306 314 321 328 334 336 334 313 298 278 272 260 293 253 235 222 247 2 349 355 0 286 249 240 266 266 239 251 329 275 274 40 194 107 117 95 89 62 36 28 16 19 21 25 22 26 35 47 58 47
286 291 294 299 308 313 318 324 334 343 348 292 298 252 264 209 230 313 339 324 326 320 313 299 276 269 288 266 251 249 231 193 246 234 337 75 39 142 128 119 95 74 53 41 37 28 20 26 33 32 28 31 39 34
281 286 291 293 307 315 320 326 331 349 301 280 290 257 245 337 312 347 340 356 344 330 316 310 261 245 179 258 265 252 205 209 191 303 353 38 342 133 146 118 87 95 64 58 51 43 43 45 45 41 38 41 41 47
272 284 269 303 314 319 325 348 335 266 238 291 271 287 309 321 315 317 344 324 326 329 317 281 287 220 217 231 240 231 152 130 347 325 354 4 45 155 144 111 100 82 76 66 66 68 63 56 57 59 54 53 51 53
242 216 274 304 316 334 12 43 49 47 33 277 259 287 309 310 309 309 310 313 331 335 334 284 268 306 249 267 331 23 39 18 358 349 354 3 22 155 175 189 182 131 94 81 73 76 79 74 70 67 59 53 56 58
176 262 277 301 342 37 269 3 306 288 249 259 312 330 320 313 308 303 298 300 296 313 320 316 311 289 334 352 33 18 12 349 339 352 317 345 339 219 168 156 171 180 142 104 95 88 84 77 65 61 65 63 61 61
208 233 260 328 13 108 162 78 20 291 299 309 324 323 317 309 305 298 291 286 283 288 298 285 275 1 32 18 354 348 341 337 335 338 6 10 7 314 221 172 158 176 157 139 131 104 92 90 86 77 69 67 69 67
196 197 333 359 100 151 224 182 300 263 278 328 321 329 329 317 322 313 311 309 292 210 203 261 5 359 3 354 345 328 329 337 341 341 347 352 332 340 3 212 217 179 172 170 152 132 113 103 93 88 90 84 79 79
138 265 37 102 158 166 232 304 262 279 311 309 319 323 336 337 357 23 8 354 39 27 3 353 340 331 332 326 326 339 322 326 327 328 324 326 333 321 329 322 220 201 173 178 178 154 149 126 123 114 99 96 96 92
216 176 142 137 171 189 261 260 298 303 283 300 322 330 346 11 18 31 41 38 46 14 0 344 338 334 336 330 325 325 320 322 321 322 325 324 331 324 312 327 321 284 199 195 185 180 162 148 141 136 133 123 109 108
183 134 154 164 169 200 242 318 291 336 336 309 335 335 25 38 20 31 60 44 34 4 3 359 5 1 351 340 331 322 329 333 321 318 322 321 318 307 297 293 270 218 222 215 191 187 181 169 155 150 148 141 140 133
148 167 184 182 183 196 242 174 239 261 274 325 336 11 31 27 6 43 71 32 356 357 7 14 11 6 11 13 5 351 338 326 315 314 314 315 313 307 306 300 295 258 232 212 198 184 175 183 175 170 161 162 155 149
195 178 158 207 196 177 195 186 356 341 284 10 333 111 93 356 25 63 46 12 359 0 6 10 11 15 13 10 9 6 4 351 337 335 10 348 326 321 314 303 282 269 237 222 199 179 180 189 187 185 180 176 170 168
209 188 184 185 169 186 165 180 187 232 48 271 293 50 25 337 69 51 37 359 355 355 359 2 359 1 8 11 9 11 10 12 33 36 2 340 335 333 332 346 354 270 244 238 196 197 193 188 194 192 189 186 182 176
192 209 192 193 169 163 197 186 262 180 209 229 137 304 11 41 95 81 9 3 350 354 1 0 358 3 358 359 5 16 24 33 47 49 42 46 34 10 344 339 338 333 209 243 266 218 198 196 199 198 196 194 192 187
225 201 166 173 157 154 195 191 198 219 207 154 281 113 134 133 65 24 355 348 351 355 1 4 2 5 3 4 1 9 24 32 40 44 44 42 40 31 27 343 276 270 239 257 267 246 230 211 201 202 200 198 198 193
199 187 145 166 149 178 208 206 218 165 346 285 246 110 112 97 100 29 3 2 2 1 8 9 11 15 14 16 17 13 18 23 26 24 20 12 18 20 22 19 10 322 269 230 206 221 230 215 208 206 205 205 201 196
178 170 167 172 181 205 194 185 184 177 190 203 118 122 101 114 95 59 35 18 12 10 11 11 11 16 15 15 16 19 19 18 22 21 15 7 3 12 16 16 20 11 334 290 209 195 226 208 207 203 201 199 197 192
167 174 169 182 199 206 156 162 158 165 181 169 170 165 147 155 143 56 38 27 15 8 16 18 20 20 17 15 14 12 15 13 14 23 24 21 20 27 19 21 23 21 16 355 324 191 185 197 184 182 190 208 214 213
172 182 168 189 191 192 168 187 173 190 180 173 163 157 153 165 134 99 9 31 33 29 21 21 20 20 18 14 14 12 19 9 13 16 19 22 24 27 27 26 32 35 35 32 31 27 56 166 182 187 194 201 205 207
180 176 188 182 199 211 191 188 168 156 170 162 143 155 154 127 106 134 56 30 33 31 21 14 21 13 12 16 14 14 15 12 6 10 18 21 24 29 30 34 30 39 46 50 52 50 52 52 83 112 138 164 179 192
Wind_Speed_850mb
35 33 36 40 44 47 51 49 51 50 46 41 38 35 31 27 23 18 22 24 31 37 59 56 44 38 31 27 17 21 20 2 16 7 6 7 7 8 8 22 19 7 6 6 7 10 3 31 14 7 22 52 44 44
37 36 39 42 46 48 48 48 49 49 47 43 40 35 32 28 24 20 27 16 30 36 49 63 64 61 62 54 35 14 13 19 9 6 8 10 10 9 20 10 17 8 8 5 6 10 41 44 34 47 46 48 57 50
37 37 39 44 46 49 47 47 49 48 48 45 42 37 29 27 26 23 26 27 31 33 55 33 28 19 22 35 47 34 22 18 13 13 3 4 10 12 9 16 26 19 10 7 5 10 27 44 34 46 27 45 61 71
37 37 38 45 48 48 47 47 48 48 48 45 43 36 30 30 29 27 27 21 25 17 13 12 14 28 26 32 36 46 44 16 13 12 8 7 7 14 11 21 26 26 21 18 23 28 34 18 29 43 41 54 65 34
35 35 39 44 50 50 48 47 48 48 47 45 44 39 36 35 39 36 36 36 32 24 11 32 60 17 13 23 38 44 50 45 33 7 7 6 11 11 9 12 12 22 19 8 7 21 25 27 46 39 51 62 55 30
34 33 39 46 49 50 49 48 48 48 46 44 42 41 44 42 31 16 12 11 20 39 10 8 20 26 19 18 21 31 35 32 21 9 10 11 18 10 7 7 18 32 31 23 22 25 27 38 40 40 46 63 37 29
30 32 42 45 48 48 49 50 49 47 45 43 42 45 42 30 21 18 10 9 10 13 9 11 11 11 19 17 11 18 23 17 15 9 14 15 27 17 8 20 22 31 31 27 26 31 28 34 43 42 50 45 33 27
28 32 43 46 48 47 48 48 48 48 44 42 44 42 35 17 16 29 25 34 27 16 10 6 10 19 25 17 13 22 14 18 18 11 10 13 16 17 9 14 16 28 33 35 28 37 37 41 42 41 42 38 34 38
28 34 43 46 47 46 45 44 47 47 45 44 39 23 9 5 6 10 13 14 15 25 8 8 7 6 10 23 10 16 17 8 12 8 10 10 9 10 9 19 19 26 29 33 34 35 39 45 43 36 36 41 45 38
28 36 42 44 45 44 42 41 43 45 46 34 18 8 8 4 10 14 13 11 18 15 16 10 31 18 25 15 9 8 14 7 7 14 11 7 13 23 14 3 12 20 24 28 33 38 41 43 40 34 32 34 37 38
27 37 40 41 40 40 38 37 36 40 31 24 13 9 16 18 10 14 11 13 14 7 15 16 31 23 19 13 8 10 4 6 6 5 5 6 2 5 8 7 11 16 22 26 24 25 25 36 42 34 29 33 41 38
29 36 35 36 36 34 32 33 35 29 22 24 25 27 18 6 12 7 7 8 8 7 14 8 5 6 6 10 8 6 4 7 7 6 5 3 10 18 9 9 14 14 21 22 24 29 30 39 40 34 24 32 36 32
33 32 31 32 31 31 26 31 32 32 33 9 6 7 5 5 3 7 8 7 7 15 15 9 2 3 7 10 10 6 8 7 10 5 4 6 10 15 9 8 12 12 18 20 26 29 32 33 34 36 31 32 30 30
31 26 26 27 26 23 26 31 31 31 11 7 8 6 7 5 7 6 12 16 23 20 23 10 10 7 2 3 4 8 10 3 4 4 1 10 16 9 9 7 11 13 16 17 19 26 29 33 39 40 38 36 39 34
23 21 21 19 19 23 27 30 26 11 7 8 8 7 7 15 30 14 19 24 28 36 32 21 15 9 3 6 7 9 8 6 6 2 6 18 11 7 6 7 3 14 11 16 17 21 25 29 34 36 36 34 31 30
15 15 15 15 20 24 26 18 4 3 2 5 7 13 24 27 32 35 28 29 14 30 39 18 11 6 8 5 9 9 4 4 1 6 10 10 3 5 9 3 3 8 12 15 17 18 20 24 28 31 30 33 33 35
10 7 16 16 16 17 16 8 5 3 1 4 10 20 24 25 25 32 31 34 26 17 9 12 6 6 2 8 5 5 7 11 21 25 26 16 8 7 8 7 3 6 7 12 13 15 18 20 22 28 32 29 35 35
10 13 13 10 12 9 2 3 2 2 6 11 14 23 26 28 31 32 26 23 20 15 17 13 15 9 9 12 9 9 28 44 29 36 29 23 15 4 12 9 11 8 9 13 11 12 14 16 19 23 25 25 28 31
19 12 5 5 8 7 1 1 2 6 6 13 15 18 26 29 27 25 27 23 18 15 13 15 10 8 8 7 26 39 36 36 43 43 35 26 22 17 5 8 9 14 10 11 10 12 11 14 17 19 21 22 26 28
12 7 3 4 11 2 2 3 1 5 9 16 19 25 28 26 26 23 18 13 15 10 10 5 10 28 29 35 33 37 39 41 42 42 37 38 24 34 2 5 9 13 16 14 14 12 13 15 15 15 17 20 23 26
6 6 4 14 2 2 3 4 6 6 11 14 21 26 19 25 21 32 29 38 25 14 15 22 38 43 41 35 35 36 34 35 34 33 36 38 38 28 30 20 8 16 26 21 18 16 13 13 14 17 16 17 20 22
10 6 9 4 4 2 3 2 9 13 7 14 20 19 14 18 25 26 20 24 14 18 31 42 44 40 41 35 35 32 33 35 34 33 30 29 33 30 23 16 16 12 15 18 25 19 17 16 17 18 18 21 23 23
8 11 7 5 4 4 5 2 5 8 6 13 16 9 13 10 14 9 9 15 16 32 42 41 43 38 34 32 28 26 23 25 27 29 30 28 28 26 31 34 18 22 22 22 26 24 22 23 25 21 22 21 20 25
18 7 8 9 8 4 2 3 2 5 7 6 6 5 7 8 10 6 7 11 26 35 46 51 48 48 51 49 42 34 31 28 30 28 24 26 28 27 27 31 26 19 26 20 32 35 33 28 29 26 24 22 22 22
6 6 9 5 8 6 7 3 2 2 4 4 3 4 3 3 3 6 6 15 31 38 50 54 50 50 53 58 58 50 36 28 25 23 23 28 28 26 25 25 29 27 29 20 35 44 41 33 34 32 30 27 25 24
9 11 16 15 12 8 6 5 7 5 3 3 2 4 2 2 5 6 7 22 26 37 43 46 43 46 52 57 63 64 53 32 26 28 21 24 25 23 20 23 18 21 12 13 29 31 37 37 39 38 35 34 35 30
8 12 13 10 8 10 8 7 3 4 5 5 3 1 4 3 5 7 8 17 22 33 32 35 36 37 41 47 56 60 55 41 28 26 28 29 30 20 16 17 15 10 12 25 14 36 44 43 42 43 40 37 38 36
11 13 16 18 12 7 6 6 7 6 4 3 4 4 5 2 4 4 8 17 21 25 26 27 29 30 33 35 41 54 57 52 49 41 33 45 45 45 34 13 17 18 12 11 18 26 25 41 42 44 44 42 41 40
12 16 15 15 12 8 13 11 7 4 3 4 1 4 7 5 3 6 10 14 17 20 24 29 32 30 30 28 32 40 53 61 64 64 55 58 67 62 53 45 30 12 17 18 21 26 28 30 38 42 44 45 42 40
17 24 13 18 10 12 15 14 8 8 5 4 9 14 11 11 9 7 8 11 15 18 20 22 26 31 33 36 36 37 42 48 53 55 53 54 56 54 55 52 48 29 11 9 14 13 29 27 35 38 45 48 51 53
26 24 13 15 12 14 18 19 12 7 8 8 6 10 17 15 11 9 14 13 12 12 16 20 23 28 31 34 35 37 38 42 46 49 50 46 47 51 56 52 49 44 34 20 9 17 21 30 31 35 39 47 50 55
21 20 19 11 12 12 13 12 14 10 15 14 11 14 15 15 9 3 12 13 12 15 17 18 20 23 26 25 26 28 31 32 40 48 48 49 50 49 46 53 54 52 45 39 26 25 18 30 42 39 37 36 35 47
11 19 15 8 6 9 19 12 8 11 9 9 8 12 10 7 8 6 4 13 14 15 17 14 14 15 19 24 26 25 27 28 36 38 35 38 41 44 47 44 45 48 50 51 48 43 35 25 26 24 18 20 25 31
Wind_Direction_850mb
306 305 315 323 328 329 330 330 332 332 332 331 332 331 326 318 305 286 275 268 267 272 283 281 279 278 278 255 257 311 315 353 290 264 321 337 313 310 303 286 288 269 290 305 292 267 345 341 348 233 315 309 308 302
300 300 312 321 326 326 328 328 330 330 329 328 327 328 326 321 309 287 287 279 275 265 266 287 283 271 258 251 251 231 283 313 289 313 349 330 312 295 313 296 328 302 205 260 202 287 300 309 297 298 289 277 289 285
296 299 309 319 323 324 326 326 327 328 326 325 325 325 328 326 318 298 283 288 281 284 296 274 266 248 250 242 234 239 258 228 230 234 299 285 277 306 293 287 312 310 328 241 295 269 315 313 309 304 307 307 302 287
294 298 307 316 319 321 323 323 323 324 323 324 322 322 325 314 303 291 280 264 263 283 283 307 304 272 262 246 221 221 234 234 263 238 219 256 260 290 278 296 303 289 296 288 272 289 319 282 294 320 323 320 320 310
292 298 307 315 317 318 321 321 321 322 322 322 320 319 312 302 296 292 277 261 232 240 290 299 306 302 237 226 228 227 238 249 261 248 238 233 252 298 283 299 267 268 351 315 296 334 294 325 343 343 335 322 329 327
293 300 306 314 312 316 319 320 321 320 321 322 319 315 311 306 300 285 301 242 225 220 264 284 301 285 225 221 227 228 230 233 226 215 238 237 250 262 266 266 275 342 337 349 328 334 358 339 335 340 330 332 341 339
292 301 309 311 311 315 317 319 320 320 323 322 317 314 310 300 265 213 265 199 209 223 245 276 271 254 219 216 223 213 212 214 212 228 227 243 255 208 264 272 311 343 356 353 29 7 355 351 340 340 345 346 357 6
290 301 312 308 310 315 316 318 319 320 325 322 318 313 306 297 253 243 259 247 250 207 243 264 265 259 202 209 200 194 198 205 219 237 239 237 242 212 258 302 334 358 358 0 42 21 354 345 345 350 353 1 15 23
287 302 310 307 311 314 317 319 319 322 327 325 321 317 308 273 242 250 256 224 235 223 258 239 268 298 238 255 203 183 192 206 224 220 236 244 239 230 276 308 356 12 10 356 15 7 6 352 350 4 3 11 21 29
284 304 306 307 311 314 319 321 322 327 333 336 354 290 210 150 257 276 262 224 209 213 231 248 248 261 313 305 269 194 193 218 232 216 216 237 256 260 240 298 7 11 7 8 14 10 0 357 3 12 16 15 23 31
288 300 303 307 311 315 322 326 332 337 354 352 323 278 286 286 280 238 231 204 179 230 217 236 238 245 266 266 299 289 286 241 255 153 242 228 297 126 107 102 54 27 12 20 28 20 14 1 8 23 28 23 26 36
291 295 303 304 308 315 323 331 339 347 325 307 298 295 313 324 234 260 244 244 208 265 167 247 228 197 256 276 268 260 239 271 272 354 249 304 323 111 111 87 65 43 22 17 19 19 18 12 14 26 41 47 32 38
289 295 298 301 306 314 321 328 334 336 334 313 298 278 272 260 293 253 235 222 247 2 349 355 0 286 249 240 266 266 239 251 329 275 274 40 194 107 117 95 89 62 36 28 16 19 21 25 22 26 35 47 58 47
286 291 294 299 308 313 318 324 334 343 348 292 298 252 264 209 230 313 339 324 326 320 313 299 276 269 288 266 251 249 231 193 246 234 337 75 39 142 128 119 95 74 53 41 37 28 20 26 33 32 28 31 39 34
281 286 291 293 307 315 320 326 331 349 301 280 290 257 245 337 312 347 340 356 344 330 316 310 261 245 179 258 265 252 205 209 191 303 353 38 342 133 146 118 87 95 64 58 51 43 43 45 45 41 38 41 41 47
272 284 269 303 314 319 325 348 335 266 238 291 271 287 309 321 315 317 344 324 326 329 317 281 287 220 217 231 240 231 152 130 347 325 354 4 45 155 144 111 100 82 76 66 66 68 63 56 57 59 54 53 51 53
242 216 274 304 316 334 12 43 49 47 33 277 259 287 309 310 309 309 310 313 331 335 334 284 268 306 249 267 331 23 39 18 358 349 354 3 22 155 175 189 182 131 94 81 73 76 79 74 70 67 59 53 56 58
176 262 277 301 342 37 269 3 306 288 249 259 312 330 320 313 308 303 298 300 296 313 320 316 311 289 334 352 33 18 12 349 339 352 317 345 339 219 168 156 171 180 142 104 95 88 84 77 65 61 65 63 61 61
208 233 260 328 13 108 162 78 20 291 299 309 324 323 317 309 305 298 291 286 283 288 298 285 275 1 32 18 354 348 341 337 335 338 6 10 7 314 221 172 158 176 157 139 131 104 92 90 86 77 69 67 69 67
196 197 333 359 100 151 224 182 300 263 278 328 321 329 329 317 322 313 311 309 292 210 203 261 5 359 3 354 345 328 329 337 341 341 347 352 332 340 3 212 217 179 172 170 152 132 113 103 93 88 90 84 79 79
138 265 37 102 158 166 232 304 262 279 311 309 319 323 336 337 357 23 8 354 39 27 3 353 340 331 332 326 326 339 322 326 327 328 324 326 333 321 329 322 220 201 173 178 178 154 149 126 123 114 99 96 96 92
216 176 142 137 171 189 261 260 298 303 283 300 322 330 346 11 18 31 41 38 46 14 0 344 338 334 336 330 325 325 320 322 321 322 325 324 331 324 312 327 321 284 199 195 185 180 162 148 141 136 133 123 109 108
183 134 154 164 169 200 242 318 291 336 336 309 335 335 25 38 20 31 60 44 34 4 3 359 5 1 351 340 331 322 329 333 321 318 322 321 318 307 297 293 270 218 222 215 191 187 181 169 155 150 148 141 140 133
148 167 184 182 183 196 242 174 239 261 274 325 336 11 31 27 6 43 71 32 356 357 7 14 11 6 11 13 5 351 338 326 315 314 314 315 313 307 306 300 295 258 232 212 198 184 175 183 175 170 161 162 155 149
195 178 158 207 196 177 195 186 356 341 284 10 333 111 93 356 25 63 46 12 359 0 6 10 11 15 13 10 9 6 4 351 337 335 10 348 326 321 314 303 282 269 237 222 199 179 180 189 187 185 180 176 170 168
209 188 184 185 169 186 165 180 187 232 48 271 293 50 25 337 69 51 37 359 355 355 359 2 359 1 8 11 9 11 10 12 33 36 2 340 335 333 332 346 354 270 244 238 196 197 193 188 194 192 189 186 182 176
192 209 192 193 169 163 197 186 262 180 209 229 137 304 11 41 95 81 9 3 350 354 1 0 358 3 358 359 5 16 24 33 47 49 42 46 34 10 344 339 338 333 209 243 266 218 198 196 199 198 196 194 192 187
225 201 166 173 157 154 195 191 198 219 207 154 281 113 134 133 65 24 355 348 351 355 1 4 2 5 3 4 1 9 24 32 40 44 44 42 40 31 27 343 276 270 239 257 267 246 230 211 201 202 200 198 198 193
199 187 145 166 149 178 208 206 218 165 346 285 246 110 112 97 100 29 3 2 2 1 8 9 11 15 14 16 17 13 18 23 26 24 20 12 18 20 22 19 10 322 269 230 206 221 230 215 208 206 205 205 201 196
178 170 167 172 181 205 194 185 184 177 190 203 118 122 101 114 95 59 35 18 12 10 11 11 11 16 15 15 16 19 19 18 22 21 15 7 3 12 16 16 20 11 334 290 209 195 226 208 207 203 201 199 197 192
167 174 169 182 199 206 156 162 158 165 181 169 170 165 147 155 143 56 38 27 15 8 16 18 20 20 17 15 14 12 15 13 14 23 24 21 20 27 19 21 23 21 16 355 324 191 185 197 184 182 190 208 214 213
172 182 168 189 191 192 168 187 173 190 180 173 163 157 153 165 134 99 9 31 33 29 21 21 20 20 18 14 14 12 19 9 13 16 19 22 24 27 27 26 32 35 35 32 31 27 56 166 182 187 194 201 205 207
180 176 188 182 199 211 191 188 168 156 170 162 143 155 154 127 106 134 56 30 33 31 21 14 21 13 12 16 14 14 15 12 6 10 18 21 24 29 30 34 30 39 46 50 52 50 52 52 83 112 138 164 179 192